CW9803 Weather Reports


time (UTC)temp
C
wind
direction
speed
KPH
gust
KPH
rain 1hr
cm
rain 24hr
cm
rain mn
cm
humidity
%
barometer
mb
20260509011809 20 196 6.4 6.4 0.00 0.00 0.00 26 1014.2
20260509011307 20 104 6.4 9.7 0.00 0.00 0.00 26 1014.3
20260509010804 20 252 14.5 20.9 0.00 0.00 0.00 25 1014.2
20260509010301 20 257 22.5 27.4 0.00 0.00 0.00 25 1014.4
20260509005758 20 247 11.3 12.9 0.00 0.00 0.00 25 1014.3
20260509005256 20 271 17.7 22.5 0.00 0.00 0.00 24 1014.4
20260509004755 20 290 14.5 17.7 0.00 0.00 0.00 24 1014.3
20260509004252 20 232 9.7 12.9 0.00 0.00 0.00 25 1014.3
20260509003751 20 296 14.5 17.7 0.00 0.00 0.00 25 1014.4
20260509003248 20 301 14.5 17.7 0.00 0.00 0.00 24 1014.4
20260509002745 21 274 6.4 6.4 0.00 0.00 0.00 24 1014.5
20260509002243 21 284 11.3 14.5 0.00 0.00 0.00 24 1014.3
20260509001741 21 268 14.5 16.1 0.00 0.00 0.00 23 1014.2
20260509001236 21 319 6.4 9.7 0.00 0.00 0.00 24 1013.9
20260509000734 21 258 9.7 12.9 0.00 0.00 0.00 25 1013.9
20260509000233 21 248 16.1 20.9 0.00 0.00 0.00 26 1013.9
20260508235728 21 280 8.0 11.3 0.00 0.00 0.00 25 1014.0
20260508235225 21 212 11.3 14.5 0.00 0.00 0.00 26 1014.0
20260508234722 21 214 4.8 9.7 0.00 0.00 0.00 27 1013.8
20260508234218 21 288 12.9 17.7 0.00 0.00 0.00 26 1013.8
20260508233718 21 253 16.1 20.9 0.00 0.00 0.00 27 1013.7
20260508233215 21 213 4.8 6.4 0.00 0.00 0.00 30 1013.9
20260508232712 21 166 14.5 16.1 0.00 0.00 0.00 29 1013.7
20260508232208 21 244 11.3 16.1 0.00 0.00 0.00 30 1013.8
20260508231707 21 329 11.3 14.5 0.00 0.00 0.00 31 1013.8
20260508231203 21 219 9.7 11.3 0.00 0.00 0.00 30 1013.6
20260508230700 21 244 11.3 12.9 0.00 0.00 0.00 31 1013.8
20260508230156 21 239 4.8 6.4 0.00 0.00 0.00 32 1013.7
20260508225654 21 305 17.7 22.5 0.00 0.00 0.00 31 1013.7
20260508225150 21 274 9.7 14.5 0.00 0.00 0.00 32 1013.9
20260508224648 21 276 8.0 12.9 0.00 0.00 0.00 33 1013.7
20260508224145 21 255 16.1 22.5 0.00 0.00 0.00 32 1013.7
20260508223643 21 66 11.3 12.9 0.00 0.00 0.00 33 1013.7
20260508223140 21 18 6.4 6.4 0.00 0.00 0.00 35 1013.9
20260508222637 21 320 6.4 9.7 0.00 0.00 0.00 34 1013.7
20260508222134 21 254 6.4 9.7 0.00 0.00 0.00 34 1013.8
20260508221631 21 294 8.0 9.7 0.00 0.00 0.00 35 1013.9
20260508221126 20 327 11.3 14.5 0.00 0.00 0.00 35 1013.9
20260508220623 21 294 9.7 12.9 0.00 0.00 0.00 35 1013.9
20260508220120 20 201 6.4 9.7 0.00 0.00 0.00 35 1013.8
20260508215617 20 241 4.8 6.4 0.00 0.00 0.00 33 1013.9
20260508215113 21 328 9.7 11.3 0.00 0.00 0.00 31 1013.9
20260508214610 21 302 6.4 9.7 0.00 0.00 0.00 31 1014.0
20260508214107 20 322 8.0 11.3 0.00 0.00 0.00 29 1013.7
20260508213604 21 253 6.4 6.4 0.00 0.00 0.00 30 1013.8
20260508213100 20 273 6.4 6.4 0.00 0.00 0.00 28 1013.6
20260508212557 20 231 8.0 9.7 0.00 0.00 0.00 28 1013.8
20260508212053 20 285 14.5 20.9 0.00 0.00 0.00 27 1013.7
20260508211548 20 285 9.7 12.9 0.00 0.00 0.00 28 1013.9
20260508211045 21 263 11.3 12.9 0.00 0.00 0.00 27 1013.6
20260508210542 21 192 8.0 11.3 0.00 0.00 0.00 27 1013.7
20260508210039 21 140 3.2 4.8 0.00 0.00 0.00 30 1013.7
20260508205536 21 146 1.6 1.6 0.00 0.00 0.00 30 1013.7
20260508205033 21 147 6.4 6.4 0.00 0.00 0.00 29 1013.6
20260508204529 21 204 3.2 3.2 0.00 0.00 0.00 29 1013.7
20260508204025 21 113 0.0 0.0 0.00 0.00 0.00 29 1013.7
20260508203521 21 159 1.6 3.2 0.00 0.00 0.00 29 1013.8
20260508203018 21 174 3.2 3.2 0.00 0.00 0.00 30 1013.7
20260508202514 20 179 3.2 6.4 0.00 0.00 0.00 33 1013.7
20260508202012 20 190 1.6 3.2 0.00 0.00 0.00 29 1013.7
20260508201508 20 168 6.4 9.7 0.00 0.00 0.00 33 1013.9
20260508201005 20 192 6.4 14.5 0.00 0.00 0.00 31 1014.0
20260508200502 20 168 6.4 6.4 0.00 0.00 0.00 29 1013.9
20260508195956 20 225 8.0 11.3 0.00 0.00 0.00 29 1013.8
20260508195454 21 145 0.0 1.6 0.00 0.00 0.00 30 1014.2
20260508194950 20 100 3.2 4.8 0.00 0.00 0.00 29 1013.9
20260508194448 20 117 1.6 3.2 0.00 0.00 0.00 30 1013.9
20260508193944 20 135 4.8 4.8 0.00 0.00 0.00 32 1013.8
20260508193441 20 185 6.4 6.4 0.00 0.00 0.00 30 1014.3
20260508192938 20 149 6.4 6.4 0.00 0.00 0.00 30 1014.0
20260508192435 20 219 1.6 1.6 0.00 0.00 0.00 28 1014.0
20260508191931 19 160 3.2 4.8 0.00 0.00 0.00 29 1014.3
20260508191429 19 145 6.4 9.7 0.00 0.00 0.00 33 1014.3
20260508190925 18 91 3.2 4.8 0.00 0.00 0.00 29 1014.4
20260508190423 18 244 3.2 4.8 0.00 0.00 0.00 38 1014.4
20260508185919 18 137 3.2 3.2 0.00 0.00 0.00 36 1014.3
20260508185417 18 148 6.4 9.7 0.00 0.00 0.00 33 1014.5
20260508184914 18 150 3.2 3.2 0.00 0.00 0.00 32 1014.4
20260508184411 18 154 3.2 3.2 0.00 0.00 0.00 34 1014.4
20260508183907 18 156 6.4 11.3 0.00 0.00 0.00 35 1014.4
20260508183404 17 165 6.4 9.7 0.00 0.00 0.00 37 1014.4
20260508182859 17 142 0.0 1.6 0.00 0.00 0.00 41 1014.4
20260508182356 17 176 3.2 3.2 0.00 0.00 0.00 45 1014.5
20260508181846 16 138 1.6 3.2 0.00 0.00 0.00 45 1014.8
20260508181343 16 146 3.2 3.2 0.00 0.00 0.00 42 1014.5
20260508180841 16 143 1.6 3.2 0.00 0.00 0.00 44 1014.6
20260508180337 16 156 3.2 4.8 0.00 0.00 0.00 42 1014.6
20260508175833 16 142 3.2 3.2 0.00 0.00 0.00 43 1014.7
20260508175330 16 121 1.6 1.6 0.00 0.00 0.00 41 1014.7
20260508174828 16 144 0.0 0.0 0.00 0.00 0.00 39 1014.9
20260508174325 16 147 0.0 1.6 0.00 0.00 0.00 40 1014.6
20260508173821 16 133 0.0 0.0 0.00 0.00 0.00 42 1014.7
20260508173319 14 136 3.2 3.2 0.00 0.00 0.00 42 1014.6
20260508172815 14 143 1.6 1.6 0.00 0.00 0.00 44 1014.7
20260508172312 14 136 3.2 3.2 0.00 0.00 0.00 43 1014.4
20260508171808 14 117 1.6 3.2 0.00 0.00 0.00 46 1014.5
20260508171304 13 149 3.2 3.2 0.00 0.00 0.00 47 1014.5
20260508170801 13 139 3.2 4.8 0.00 0.00 0.00 50 1014.5
20260508170300 12 158 4.8 6.4 0.00 0.00 0.00 53 1014.7
20260508165755 12 168 3.2 3.2 0.00 0.00 0.00 53 1014.7
20260508165253 12 162 1.6 3.2 0.00 0.00 0.00 55 1014.7
20260508164749 12 127 3.2 3.2 0.00 0.00 0.00 57 1014.8
20260508164246 11 156 3.2 3.2 0.00 0.00 0.00 59 1014.8
20260508163744 11 162 3.2 3.2 0.00 0.00 0.00 59 1014.6
20260508163242 11 174 1.6 1.6 0.00 0.00 0.00 61 1014.7
20260508162737 11 162 1.6 1.6 0.00 0.00 0.00 62 1014.7
20260508162234 11 137 1.6 1.6 0.00 0.00 0.00 63 1014.6
20260508161731 11 149 1.6 3.2 0.00 0.00 0.00 63 1014.5
20260508161228 10 147 1.6 1.6 0.00 0.00 0.00 64 1014.4
20260508160726 10 161 1.6 1.6 0.00 0.00 0.00 65 1014.6
20260508160224 10 149 3.2 3.2 0.00 0.00 0.00 64 1014.6
20260508155720 10 136 0.0 0.0 0.00 0.00 0.00 64 1014.6
20260508155218 10 135 1.6 1.6 0.00 0.00 0.00 64 1014.6
20260508154714 10 154 1.6 3.2 0.00 0.00 0.00 64 1014.5
20260508154212 9 156 1.6 1.6 0.00 0.00 0.00 63 1014.6
20260508153708 9 137 0.0 0.0 0.00 0.00 0.00 63 1014.5
20260508153206 8 172 0.0 1.6 0.00 0.00 0.00 64 1014.7
20260508152702 8 142 0.0 0.0 0.00 0.00 0.00 66 1014.7
20260508152158 8 131 0.0 0.0 0.00 0.00 0.00 64 1014.6
20260508151654 8 122 0.0 0.0 0.00 0.00 0.00 65 1014.6
20260508151151 7 152 0.0 0.0 0.00 0.00 0.00 67 1014.7
20260508150648 7 118 0.0 0.0 0.00 0.00 0.00 67 1014.7
20260508150144 6 157 0.0 1.6 0.00 0.00 0.00 67 1014.6
20260508145640 7 90 1.6 1.6 0.00 0.00 0.00 69 1014.7
20260508145137 6 308 3.2 3.2 0.00 0.00 0.00 73 1014.6
20260508144635 7 59 1.6 3.2 0.00 0.00 0.00 73 1014.7
20260508144132 6 116 0.0 0.0 0.00 0.00 0.00 75 1014.6
20260508143629 6 83 3.2 3.2 0.00 0.00 0.00 76 1014.6
20260508143126 5 58 3.2 3.2 0.00 0.00 0.00 76 1014.6
20260508142622 5 94 3.2 3.2 0.00 0.00 0.00 77 1014.5
20260508142119 4 8 3.2 4.8 0.00 0.00 0.00 79 1014.5
20260508141616 4 145 1.6 3.2 0.00 0.00 0.00 79 1014.6
20260508141114 -17 0.0 0.0 0.00 0.00 0.00 1014.7
20260508140611 4 111 0.0 0.0 0.00 0.00 0.00 79 1014.6
20260508140108 4 111 0.0 0.0 0.00 0.00 0.00 79 1014.5
20260508135602 3 110 0.0 0.0 0.00 0.00 0.00 81 1014.5
20260508135059 3 115 0.0 0.0 0.00 0.00 0.00 82 1014.5
20260508134556 2 118 0.0 1.6 0.00 0.00 0.00 84 1014.7
20260508134053 2 104 0.0 0.0 0.00 0.00 0.00 85 1014.5
20260508133549 2 50 3.2 3.2 0.00 0.00 0.00 86 1014.5
20260508133047 2 118 0.0 0.0 0.00 0.00 0.00 88 1014.6
20260508132545 2 117 0.0 0.0 0.00 0.00 0.00 89 1014.5
20260508132041 1 125 0.0 0.0 0.00 0.00 0.00 92 1014.5
20260508131536 1 126 0.0 0.0 0.00 0.00 0.00 92 1014.5
20260508131033 0 135 0.0 0.0 0.00 0.00 0.00 93 1014.5
20260508130531 0 135 0.0 0.0 0.00 0.00 0.00 93 1014.5
20260508130026 -17 0.0 0.0 0.00 0.00 0.00 1014.3
20260508125517 -17 0.0 0.0 0.00 0.00 0.00 1014.3
20260508125015 -17 0.0 0.0 0.00 0.00 0.00 1014.2
20260508124513 -17 0.0 0.0 0.00 0.00 0.00 1014.3
20260508124010 -17 0.0 0.0 0.00 0.00 0.00 1014.0
20260508123508 -17 0.0 0.0 0.00 0.00 0.00 1014.2
20260508123004 0 126 0.0 0.0 0.00 0.00 0.00 89 1014.0
20260508122502 0 126 0.0 0.0 0.00 0.00 0.00 89 1014.2
20260508121958 0 126 0.0 0.0 0.00 0.00 0.00 89 1014.2
20260508121456 0 131 0.0 0.0 0.00 0.00 0.00 89 1014.2
20260508120954 0 142 0.0 0.0 0.00 0.00 0.00 89 1013.9
20260508120451 0 124 0.0 0.0 0.00 0.00 0.00 90 1014.0
20260508115949 0 124 0.0 0.0 0.00 0.00 0.00 90 1013.8
20260508115447 0 122 0.0 0.0 0.00 0.00 0.00 91 1013.8
20260508114943 -17 0.0 0.0 0.00 0.00 0.00 1013.8
20260508114440 -17 0.0 0.0 0.00 0.00 0.00 1013.8
20260508113937 -17 0.0 0.0 0.00 0.00 0.00 1013.7
20260508113435 -17 0.0 0.0 0.00 0.00 0.00 1013.7
20260508112932 -17 0.0 0.0 0.00 0.00 0.00 1013.7
20260508112428 0 120 0.0 0.0 0.00 0.00 0.00 92 1013.7
20260508111925 0 120 0.0 0.0 0.00 0.00 0.00 92 1014.0
20260508111422 1 120 0.0 0.0 0.00 0.00 0.00 92 1013.8
20260508110919 1 169 1.6 1.6 0.00 0.00 0.00 92 1013.6
20260508110417 1 169 1.6 1.6 0.00 0.00 0.00 92 1013.6
20260508105916 1 113 0.0 0.0 0.00 0.00 0.00 92 1013.8
20260508105413 1 113 0.0 0.0 0.00 0.00 0.00 92 1013.7
20260508104910 1 152 0.0 0.0 0.00 0.00 0.00 92 1013.9
20260508104407 1 140 0.0 0.0 0.00 0.00 0.00 90 1013.7
20260508103904 1 122 0.0 0.0 0.00 0.00 0.00 89 1013.8
20260508103401 1 129 0.0 0.0 0.00 0.00 0.00 87 1013.8
20260508102858 1 126 0.0 0.0 0.00 0.00 0.00 87 1013.5
20260508102357 1 122 1.6 1.6 0.00 0.00 0.00 86 1013.5
20260508101854 2 98 1.6 1.6 0.00 0.00 0.00 86 1013.7
20260508101351 2 158 0.0 1.6 0.00 0.00 0.00 86 1013.6
20260508100848 2 114 0.0 0.0 0.00 0.00 0.00 86 1013.6
20260508100347 -17 0.0 0.0 0.00 0.00 0.00 1013.3
20260508095842 -17 0.0 0.0 0.00 0.00 0.00 1013.3
20260508095340 2 124 0.0 0.0 0.00 0.00 0.00 85 1013.5
20260508094837 2 124 0.0 0.0 0.00 0.00 0.00 85 1013.6
20260508094333 2 146 0.0 0.0 0.00 0.00 0.00 86 1013.5
20260508093831 2 146 0.0 0.0 0.00 0.00 0.00 86 1013.5
20260508093328 2 116 0.0 0.0 0.00 0.00 0.00 87 1013.7
20260508092825 2 114 0.0 0.0 0.00 0.00 0.00 87 1013.4
20260508092323 3 136 0.0 0.0 0.00 0.00 0.00 87 1013.5
20260508091821 3 137 0.0 1.6 0.00 0.00 0.00 85 1013.5
20260508091317 -17 0.0 0.0 0.00 0.00 0.00 1013.4
20260508090815 3 175 3.2 3.2 0.00 0.00 0.00 83 1013.7
20260508090314 3 175 3.2 3.2 0.00 0.00 0.00 83 1013.5
20260508085809 -17 0.0 0.0 0.00 0.00 0.00 1013.7
20260508085307 -17 0.0 0.0 0.00 0.00 0.00 1013.8
20260508084802 4 133 0.0 0.0 0.00 0.00 0.00 82 1013.8
20260508084259 4 133 0.0 0.0 0.00 0.00 0.00 82 1013.7
20260508083757 -17 0.0 0.0 0.00 0.00 0.00 1013.5
20260508083254 -17 0.0 0.0 0.00 0.00 0.00 1013.8
20260508082754 -17 0.0 0.0 0.00 0.00 0.00 1013.9
20260508082252 4 151 0.0 0.0 0.00 0.00 0.00 80 1013.6
20260508081749 4 151 0.0 0.0 0.00 0.00 0.00 80 1013.7
20260508081246 5 161 1.6 1.6 0.00 0.00 0.00 80 1013.5
20260508080743 5 143 0.0 0.0 0.00 0.00 0.00 79 1013.6
20260508080241 5 143 0.0 0.0 0.00 0.00 0.00 79 1013.6
20260508075737 5 148 0.0 0.0 0.00 0.00 0.00 78 1013.5
20260508075234 5 147 0.0 0.0 0.00 0.00 0.00 78 1013.6
20260508074732 5 148 0.0 0.0 0.00 0.00 0.00 78 1013.5
20260508074229 5 110 0.0 0.0 0.00 0.00 0.00 77 1013.6
20260508073725 5 111 0.0 0.0 0.00 0.00 0.00 77 1013.5
20260508073224 5 112 0.0 0.0 0.00 0.00 0.00 76 1013.6
20260508072719 5 114 0.0 0.0 0.00 0.00 0.00 77 1013.4
20260508072216 6 91 1.6 1.6 0.00 0.00 0.00 79 1013.3
20260508071714 -17 0.0 0.0 0.00 0.00 0.00 1013.2
20260508071212 -17 0.0 0.0 0.00 0.00 0.00 1013.3
20260508070709 -17 0.0 0.0 0.00 0.00 0.00 1013.3
20260508070208 -17 0.0 0.0 0.00 0.00 0.00 1013.2
20260508065704 -17 0.0 0.0 0.00 0.00 0.00 1013.3
20260508065203 -17 0.0 0.0 0.00 0.00 0.00 1013.2
20260508064700 -17 0.0 0.0 0.00 0.00 0.00 1013.2
20260508064158 -17 0.0 0.0 0.00 0.00 0.00 1013.2
20260508063655 -17 0.0 0.0 0.00 0.00 0.00 1013.2
20260508063153 7 149 0.0 0.0 0.00 0.00 0.00 70 1013.2
20260508062650 7 149 0.0 0.0 0.00 0.00 0.00 70 1013.3
20260508062147 -17 0.0 0.0 0.00 0.00 0.00 1013.0
20260508061644 -17 0.0 0.0 0.00 0.00 0.00 1013.3
20260508061142 -17 0.0 0.0 0.00 0.00 0.00 1013.3
20260508060638 -17 0.0 0.0 0.00 0.00 0.00 1013.1
20260508060135 -17 0.0 0.0 0.00 0.00 0.00 1013.0
20260508055631 -17 0.0 0.0 0.00 0.00 0.00 1013.1
20260508055128 -17 0.0 0.0 0.00 0.00 0.00 1013.0
20260508054624 -17 0.0 0.0 0.00 0.00 0.00 1013.0
20260508054122 -17 0.0 0.0 0.00 0.00 0.00 1013.0
20260508053619 8 120 0.0 0.0 0.00 0.00 0.00 67 1013.0
20260508053116 8 120 0.0 0.0 0.00 0.00 0.00 67 1012.9
20260508052614 -17 0.0 0.0 0.00 0.00 0.00 1012.9
20260508052111 -17 0.0 0.0 0.00 0.00 0.00 1012.9
20260508051607 -17 0.0 0.0 0.00 0.00 0.00 1013.0
20260508051102 -17 0.0 0.0 0.00 0.00 0.00 1012.9
20260508050558 -17 0.0 0.0 0.00 0.00 0.00 1013.0
20260508050056 -17 0.0 0.0 0.00 0.00 0.00 1012.7
20260508045552 -17 0.0 0.0 0.00 0.00 0.00 1013.1
20260508045050 -17 0.0 0.0 0.00 0.00 0.00 1012.9
20260508044547 -17 0.0 0.0 0.00 0.00 0.00 1013.2
20260508044043 11 117 0.0 0.0 0.00 0.00 0.00 63 1013.0
20260508043539 11 117 0.0 0.0 0.00 0.00 0.00 63 1012.9
20260508043037 11 117 0.0 0.0 0.00 0.00 0.00 63 1012.9
20260508042533 11 103 0.0 1.6 0.00 0.00 0.00 64 1013.0
20260508042031 -17 0.0 0.0 0.00 0.00 0.00 1012.9
20260508041527 -17 0.0 0.0 0.00 0.00 0.00 1012.7
20260508041024 -17 0.0 0.0 0.00 0.00 0.00 1012.7
20260508040521 -17 0.0 0.0 0.00 0.00 0.00 1012.6
20260508040019 -17 0.0 0.0 0.00 0.00 0.00 1012.6
20260508035515 -17 0.0 0.0 0.00 0.00 0.00 1012.5
20260508035012 -17 0.0 0.0 0.00 0.00 0.00 1012.7
20260508034510 12 131 0.0 0.0 0.00 0.00 0.00 56 1012.9
20260508034006 12 131 0.0 0.0 0.00 0.00 0.00 56 1012.5
20260508033504 12 148 0.0 0.0 0.00 0.00 0.00 58 1012.4
20260508033002 13 174 1.6 1.6 0.00 0.00 0.00 57 1012.5
20260508032458 13 132 1.6 1.6 0.00 0.00 0.00 53 1012.3
20260508031955 13 153 0.0 0.0 0.00 0.00 0.00 54 1012.4
20260508031453 14 121 0.0 0.0 0.00 0.00 0.00 52 1012.2
20260508030948 14 122 0.0 0.0 0.00 0.00 0.00 53 1012.2
20260508030445 14 121 0.0 0.0 0.00 0.00 0.00 51 1012.0
20260508025943 14 104 0.0 0.0 0.00 0.00 0.00 49 1012.0
20260508025439 15 109 0.0 0.0 0.00 0.00 0.00 50 1012.3
20260508024937 15 160 0.0 1.6 0.00 0.00 0.00 48 1012.1
20260508024432 16 158 1.6 1.6 0.00 0.00 0.00 48 1012.2
20260508023929 16 123 0.0 0.0 0.00 0.00 0.00 46 1012.2
20260508023426 17 116 0.0 0.0 0.00 0.00 0.00 45 1011.9
20260508022923 -17 0.0 0.0 0.00 0.00 0.00 1012.0
20260508022419 19 138 1.6 1.6 0.00 0.00 0.00 35 1011.8
20260508021916 19 138 1.6 1.6 0.00 0.00 0.00 35 1011.8
20260508021412 20 156 1.6 1.6 0.00 0.00 0.00 33 1011.9
20260508020908 20 136 0.0 0.0 0.00 0.00 0.00 32 1012.1
20260508020406 19 106 0.0 0.0 0.00 0.00 0.00 33 1012.0
20260508015903 18 132 0.0 0.0 0.00 0.00 0.00 36 1012.0
20260508015401 19 91 0.0 0.0 0.00 0.00 0.00 39 1011.9
20260508014857 20 95 1.6 3.2 0.00 0.00 0.00 36 1012.0
20260508014354 20 127 0.0 0.0 0.00 0.00 0.00 34 1011.9
20260508013849 20 152 0.0 0.0 0.00 0.00 0.00 32 1011.7
20260508013346 20 342 3.2 4.8 0.00 0.00 0.00 30 1011.9
20260508012843 20 160 0.0 0.0 0.00 0.00 0.00 29 1011.7
20260508012340 20 156 0.0 0.0 0.00 0.00 0.00 31 1011.8